Flag for Canada Weather past 2 weeks in Burnaby, British Columbia, Canada

57 °F

Mostly cloudy.

Feels Like: 57 °F
Forecast: 54 / 62 °F
Wind: 3 mph from Northeast

Location: Vancouver International Airport

Current Time: Oct 8, 2015 at 8:18:26 PM

Latest Report: Oct 8, 2015 at 8:00 PM

Visibility: 15 mi

Pressure: 30.00 "Hg

Humidity: 94%

Dew point: 55 °F

Location of BurnabyLocation

Historic Weather in Burnaby — Graph


Burnaby temperature yesterday

Maximum temperature yesterday: 59 °F (at 2:00 PM)
Minimum temperature yesterday: 55 °F (at 1:00 AM)
Average temperature yesterday: 57 °F

Past Weeks' High & Low Weather Summary

High63 °F (Sep 24, 1:00 PM)100% (Sep 25, 10:00 PM)30.24 "Hg (Sep 25, 10:00 PM)
Low43 °F (Sep 27, 5:00 AM)59% (Sep 26, 3:00 PM)29.87 "Hg (Oct 5, 7:00 PM)
Average55 °F87%30.04 "Hg
* Reported Sep 23 7:00 PM — Oct 8 7:00 PM, Burnaby, Weather by CustomWeather, © 2015

Note: Actual official high and low records may vary slightly from our data, if they occured in-between our weather recording intervals... More about our weather records


Burnaby weather history for previous 24 hours

Time TempWeatherWind HumidityBarometerVisibility
7:00 PM
Thu, Oct 8
57 °FMore clouds than sun.No wind94%30.01 "Hg15 mi
6:00 PM59 °FOvercast.3 mph94%30.04 "Hg15 mi
5:00 PM59 °FMostly cloudy.5 mph88%30.05 "Hg15 mi
4:00 PM61 °FMostly cloudy.No wind88%30.05 "Hg15 mi
3:00 PM61 °FMostly cloudy.3 mph88%30.08 "Hg15 mi
2:00 PM61 °FMostly cloudy.No wind88%30.09 "Hg15 mi
1:00 PM63 °FMostly cloudy.5 mph83%30.11 "Hg15 mi
12:00 PM61 °FCloudy.3 mph88%30.11 "Hg15 mi
11:00 AM59 °FCloudy.2 mph88%30.12 "Hg15 mi
10:00 AM57 °FMostly cloudy.No wind94%30.13 "Hg15 mi
9:00 AM57 °FMostly cloudy.2 mph94%30.13 "Hg15 mi
8:00 AM57 °FMostly cloudy.6 mph94%30.12 "Hg20 mi
7:00 AM57 °FOvercast.5 mph94%30.12 "Hg20 mi
6:00 AM55 °FPassing clouds.3 mph100%30.15 "Hg20 mi
5:00 AM57 °FPassing clouds.7 mph94%30.16 "Hg20 mi
4:00 AM57 °FPartly cloudy.7 mph94%30.16 "Hg20 mi
3:00 AM59 °FMostly cloudy.6 mph88%30.16 "Hg20 mi
2:00 AM59 °FOvercast.6 mph88%30.16 "Hg20 mi
1:00 AM57 °FMostly cloudy.5 mph94%30.18 "Hg20 mi
12:00 AM59 °FMostly cloudy.5 mph88%30.18 "Hg15 mi
11:00 PM
Wed, Oct 7
59 °FMostly cloudy.7 mph94%30.18 "Hg15 mi
10:00 PM59 °FMostly cloudy.8 mph94%30.17 "Hg10 mi
9:00 PM57 °FMostly cloudy.9 mph100%30.16 "Hg7 mi
8:00 PM57 °FLight rain. Fog.8 mph94%30.16 "Hg2 mi
Weather by CustomWeather, © 2015

See weather overviewHow to use our weather pages